• In Sweden
  • List of Countries
  • For 7 days
  • Water Temperature
  • Satellite Maps
  • Weather Map
  • Weather Widgets
  • user-avatar
    Login

    Hourly Weather Reading

    Today, 19 September, Tuesday

    Time Temperature Precipitation Wind Pressure Humidity
    00:00 +11°C° 0 mm 1 mps 761 mmHg 94%
    01:00 +11°C° 0 mm 1 mps 761 mmHg 94%
    02:00 +9°C° 0 mm 2 mps 761 mmHg 95%
    03:00 +9°C° 0 mm 2 mps 761 mmHg 95%
    04:00 +8°C° 0 mm 2 mps 761 mmHg 95%
    05:00 +8°C° 0 mm 2 mps 761 mmHg 95%
    06:00 +8°C° 0 mm 2 mps 761 mmHg 95%
    07:00 +9°C° 0 mm 2 mps 761 mmHg 89%
    08:00 +12°C° 0 mm 2 mps 762 mmHg 83%
    09:00 +13°C° 0 mm 1 mps 762 mmHg 78%
    10:00 +14°C° 0 mm 1 mps 762 mmHg 71%
    11:00 +15°C° 0 mm 1 mps 762 mmHg 65%
    12:00 +16°C° 0 mm 1 mps 762 mmHg 59%
    13:00 +16°C° 0 mm 2 mps 762 mmHg 59%
    14:00 +17°C° 0 mm 2 mps 762 mmHg 59%
    15:00 +17°C° 0 mm 2 mps 762 mmHg 59%
    16:00 +16°C° 0 mm 2 mps 762 mmHg 64%
    17:00 +15°C° 0 mm 2 mps 762 mmHg 70%
    18:00 +14°C° 0 mm 2 mps 762 mmHg 75%
    19:00 +13°C° 0 mm 2 mps 762 mmHg 79%
    20:00 +13°C° 0 mm 2 mps 762 mmHg 83%
    21:00 +12°C° 0 mm 2 mps 762 mmHg 87%
    22:00 +12°C° 0 mm 2 mps 762 mmHg 89%
    23:00 +10°C° 0 mm 2 mps 762 mmHg 90%

    Tomorrow, 20 September, Wednesday

    Time Temperature Precipitation Wind Pressure Humidity
    00:00 +10°C° 0 mm 2 mps 762 mmHg 92%
    01:00 +10°C° 0 mm 2 mps 761 mmHg 92%
    02:00 +10°C° 0 mm 2 mps 761 mmHg 93%
    03:00 +10°C° 0 mm 2 mps 761 mmHg 94%
    04:00 +10°C° 0 mm 2 mps 761 mmHg 94%
    05:00 +10°C° 0 mm 2 mps 761 mmHg 94%
    06:00 +10°C° 0 mm 2 mps 760 mmHg 94%
    07:00 +11°C° 0 mm 3 mps 760 mmHg 89%
    08:00 +13°C° 0 mm 3 mps 761 mmHg 83%
    09:00 +15°C° 0 mm 4 mps 761 mmHg 77%
    10:00 +17°C° 0 mm 4 mps 760 mmHg 74%
    11:00 +16°C° 0 mm 5 mps 760 mmHg 72%
    12:00 +17°C° 0 mm 5 mps 760 mmHg 69%
    13:00 +17°C° 0 mm 5 mps 760 mmHg 70%
    14:00 +17°C° 0 mm 5 mps 759 mmHg 71%
    15:00 +16°C° 0 mm 5 mps 759 mmHg 72%
    16:00 +16°C° 0 mm 5 mps 759 mmHg 76%
    17:00 +15°C° 0 mm 4 mps 759 mmHg 79%
    18:00 +14°C° 0 mm 4 mps 758 mmHg 82%
    19:00 +14°C° 0.1 mm 4 mps 758 mmHg 83%
    20:00 +14°C° 0.1 mm 4 mps 758 mmHg 84%
    21:00 +14°C° 0.1 mm 5 mps 758 mmHg 84%
    22:00 +14°C° 0.1 mm 5 mps 758 mmHg 85%
    23:00 +14°C° 0.1 mm 5 mps 758 mmHg 85%

    Day after tomorrow, 21 September, Thursday

    Time Temperature Precipitation Wind Pressure Humidity
    00:00 +14°C° 0.1 mm 5 mps 757 mmHg 86%
    01:00 +14°C° 0 mm 5 mps 757 mmHg 87%
    02:00 +13°C° 0 mm 4 mps 757 mmHg 89%
    03:00 +13°C° 0 mm 4 mps 757 mmHg 90%
    04:00 +13°C° 0 mm 4 mps 756 mmHg 90%
    05:00 +13°C° 0 mm 4 mps 756 mmHg 91%
    06:00 +13°C° 0 mm 5 mps 756 mmHg 92%
    07:00 +14°C° 0 mm 5 mps 756 mmHg 87%
    08:00 +15°C° 0 mm 6 mps 756 mmHg 83%
    09:00 +16°C° 0 mm 6 mps 756 mmHg 79%
    10:00 +16°C° 0.3 mm 6 mps 757 mmHg 79%
    11:00 +16°C° 0.3 mm 6 mps 757 mmHg 78%
    12:00 +16°C° 0.3 mm 6 mps 757 mmHg 78%
    13:00 +16°C° 0.6 mm 5 mps 757 mmHg 81%
    14:00 +15°C° 0.6 mm 4 mps 757 mmHg 84%
    15:00 +14°C° 0.6 mm 4 mps 757 mmHg 88%
    16:00 +13°C° 0.6 mm 3 mps 758 mmHg 89%
    17:00 +14°C° 0.6 mm 2 mps 758 mmHg 90%
    18:00 +13°C° 0.6 mm 2 mps 759 mmHg 90%
    19:00 +13°C° 0 mm 2 mps 759 mmHg 91%
    20:00 +12°C° 0 mm 1 mps 760 mmHg 91%
    21:00 +11°C° 0 mm 1 mps 760 mmHg 92%
    22:00 +11°C° 0 mm 1 mps 760 mmHg 92%
    23:00 +11°C° 0 mm 1 mps 761 mmHg 92%

    22 September, Friday

    Time Temperature Precipitation Wind Pressure Humidity
    00:00 +10°C° 0 mm 1 mps 761 mmHg 91%
    01:00 +10°C° 0 mm 1 mps 761 mmHg 91%
    02:00 +10°C° 0 mm 1 mps 761 mmHg 91%
    03:00 +9°C° 0 mm 1 mps 761 mmHg 91%
    04:00 +9°C° 0 mm 1 mps 761 mmHg 90%
    05:00 +9°C° 0 mm 1 mps 761 mmHg 90%
    06:00 +9°C° 0 mm 1 mps 762 mmHg 89%
    07:00 +10°C° 0 mm 1 mps 762 mmHg 83%
    08:00 +12°C° 0 mm 1 mps 762 mmHg 77%
    09:00 +14°C° 0 mm 1 mps 763 mmHg 71%
    10:00 +15°C° 0 mm 1 mps 763 mmHg 65%
    11:00 +18°C° 0 mm 1 mps 763 mmHg 58%
    12:00 +18°C° 0 mm 2 mps 763 mmHg 52%
    13:00 +18°C° 0 mm 2 mps 762 mmHg 51%
    14:00 +18°C° 0 mm 2 mps 762 mmHg 50%
    15:00 +19°C° 0 mm 2 mps 762 mmHg 49%
    16:00 +17°C° 0 mm 2 mps 762 mmHg 55%
    17:00 +16°C° 0 mm 2 mps 762 mmHg 61%
    18:00 +14°C° 0 mm 2 mps 762 mmHg 68%
    19:00 +13°C° 0 mm 2 mps 763 mmHg 72%
    20:00 +12°C° 0 mm 2 mps 763 mmHg 76%
    21:00 +12°C° 0 mm 2 mps 763 mmHg 80%
    22:00 +11°C° 0 mm 1 mps 763 mmHg 81%
    23:00 +11°C° 0 mm 1 mps 763 mmHg 81%

    23 September, Saturday

    Time Temperature Precipitation Wind Pressure Humidity
    00:00 +11°C° 0 mm 1 mps 762 mmHg 82%
    01:00 +10°C° 0 mm 1 mps 762 mmHg 81%
    02:00 +10°C° 0 mm 1 mps 762 mmHg 80%
    03:00 +10°C° 0 mm 1 mps 762 mmHg 79%
    04:00 +10°C° 0 mm 1 mps 762 mmHg 80%
    05:00 +10°C° 0 mm 1 mps 762 mmHg 81%
    06:00 +10°C° 0 mm 1 mps 762 mmHg 82%
    07:00 +10°C° 0 mm 2 mps 762 mmHg 79%
    08:00 +13°C° 0 mm 2 mps 762 mmHg 76%
    09:00 +14°C° 0 mm 3 mps 761 mmHg 73%
    10:00 +17°C° 0 mm 3 mps 761 mmHg 70%
    11:00 +18°C° 0 mm 3 mps 761 mmHg 67%
    12:00 +20°C° 0 mm 3 mps 761 mmHg 64%
    13:00 +20°C° 0 mm 4 mps 760 mmHg 63%
    14:00 +20°C° 0 mm 4 mps 760 mmHg 62%
    15:00 +20°C° 0 mm 4 mps 760 mmHg 61%
    16:00 +19°C° 0 mm 3 mps 759 mmHg 68%
    17:00 +17°C° 0 mm 3 mps 759 mmHg 74%
    18:00 +16°C° 0 mm 3 mps 759 mmHg 81%
    19:00 +16°C° 0 mm 3 mps 759 mmHg 82%
    20:00 +14°C° 0 mm 3 mps 759 mmHg 83%
    21:00 +13°C° 0 mm 3 mps 759 mmHg 84%
    22:00 +14°C° 0 mm 3 mps 759 mmHg 83%
    23:00 +14°C° 0 mm 3 mps 759 mmHg 83%

    24 September, Sunday

    Time Temperature Precipitation Wind Pressure Humidity
    00:00 +16°C° 0 mm 3 mps 759 mmHg 82%
    01:00 +16°C° 0 mm 3 mps 758 mmHg 82%
    02:00 +16°C° 0 mm 3 mps 758 mmHg 82%
    03:00 +16°C° 0 mm 3 mps 758 mmHg 83%
    04:00 +14°C° 0 mm 3 mps 758 mmHg 84%
    05:00 +14°C° 0 mm 3 mps 758 mmHg 85%
    06:00 +14°C° 0 mm 3 mps 758 mmHg 87%
    07:00 +16°C° 0 mm 3 mps 758 mmHg 83%
    08:00 +17°C° 0 mm 3 mps 758 mmHg 80%
    09:00 +18°C° 0 mm 3 mps 759 mmHg 76%
    10:00 +19°C° 0 mm 3 mps 759 mmHg 75%
    11:00 +19°C° 0 mm 3 mps 759 mmHg 74%
    12:00 +19°C° 0 mm 3 mps 759 mmHg 73%
    13:00 +19°C° 0 mm 2 mps 759 mmHg 75%
    14:00 +19°C° 0 mm 2 mps 759 mmHg 78%
    15:00 +19°C° 0 mm 1 mps 759 mmHg 80%
    16:00 +19°C° 0 mm 1 mps 759 mmHg 82%
    17:00 +18°C° 0 mm 1 mps 759 mmHg 84%
    18:00 +18°C° 0 mm 1 mps 759 mmHg 87%
    19:00 +16°C° 0 mm 1 mps 760 mmHg 88%
    20:00 +16°C° 0 mm 1 mps 760 mmHg 90%
    21:00 +14°C° 0 mm 0 mps 760 mmHg 91%
    22:00 +14°C° 0 mm 0 mps 760 mmHg 91%
    23:00 +13°C° 0 mm 0 mps 760 mmHg 92%
    Show more